Tracking 25710 objects as of 6-Jul-2022
HD Live streaming from Space Station
objects crossing your sky now

OPS 6431

Track OPS 6431 now!
10-day predictions
OPS 6431 is classified as:


NORAD ID: 8818
Int'l Code: 1976-038A
Perigee: 554.8 km
Apogee: 1,319.8 km
Inclination: 63.3 °
Period: 103.6 minutes
Semi major axis: 7308 km
RCS: Unknown
Launch date: April 30, 1976
Source: United States (US)
Launch site: AIR FORCE WESTERN TEST RANGE (AFWTR)
aabbcc
Your satellite tracking list
Your tracking list is empty




NASA's NSSDC Master Catalog

Two Line Element Set (TLE):
1 08818U 76038A   22183.97374513 0.00000242  00000-0  64142-4 0    06
2 08818  63.3334 149.7964 0523370 162.6715 197.3285 13.89550722    04
Source of the keplerian elements: McCants